• In Netherlands
  • List of Countries
  • For 7 days
  • Water Temperature
  • Satellite Maps
  • Weather Map
  • Weather Widgets
  • user-avatar
    Login

    Hourly Weather Vratsa

    Today, 28 February, Tuesday

    Time Temperature Precipitation Wind Pressure Humidity
    00:00 +6°C° 0 mm 2 mps 707 mmHg 82%
    01:00 +6°C° 0 mm 2 mps 707 mmHg 83%
    02:00 +5°C° 0 mm 2 mps 707 mmHg 84%
    03:00 +5°C° 0 mm 2 mps 707 mmHg 85%
    04:00 +5°C° 0 mm 2 mps 706 mmHg 86%
    05:00 +4°C° 0 mm 2 mps 706 mmHg 87%
    06:00 +6°C° 0 mm 1 mps 706 mmHg 86%
    07:00 +6°C° 0 mm 1 mps 706 mmHg 86%
    08:00 +7°C° 0 mm 1 mps 707 mmHg 85%
    09:00 +9°C° 0 mm 1 mps 707 mmHg 77%
    10:00 +11°C° 0 mm 1 mps 707 mmHg 69%
    11:00 +13°C° 0 mm 1 mps 707 mmHg 62%
    12:00 +14°C° 0 mm 1 mps 707 mmHg 58%
    13:00 +15°C° 0 mm 1 mps 707 mmHg 55%
    14:00 +16°C° 0 mm 2 mps 706 mmHg 51%
    15:00 +16°C° 0 mm 2 mps 706 mmHg 54%
    16:00 +15°C° 0 mm 2 mps 706 mmHg 57%
    17:00 +15°C° 0 mm 2 mps 705 mmHg 60%
    18:00 +13°C° 0 mm 2 mps 705 mmHg 67%
    19:00 +10°C° 0 mm 2 mps 705 mmHg 74%
    20:00 +8°C° 0 mm 2 mps 705 mmHg 81%
    21:00 +8°C° 0 mm 2 mps 705 mmHg 82%
    22:00 +7°C° 0 mm 2 mps 705 mmHg 84%
    23:00 +7°C° 0 mm 2 mps 705 mmHg 86%

    Tomorrow, 1 March, Wednesday

    Time Temperature Precipitation Wind Pressure Humidity
    00:00 +7°C° 0 mm 2 mps 705 mmHg 86%
    01:00 +6°C° 0 mm 2 mps 704 mmHg 87%
    02:00 +6°C° 0 mm 2 mps 704 mmHg 87%
    03:00 +6°C° 0 mm 2 mps 704 mmHg 88%
    04:00 +5°C° 0 mm 2 mps 704 mmHg 88%
    05:00 +5°C° 0 mm 2 mps 703 mmHg 89%
    06:00 +5°C° 0 mm 2 mps 703 mmHg 88%
    07:00 +5°C° 0 mm 2 mps 704 mmHg 87%
    08:00 +6°C° 0 mm 2 mps 704 mmHg 86%
    09:00 +8°C° 0 mm 2 mps 704 mmHg 77%
    10:00 +10°C° 0 mm 2 mps 703 mmHg 67%
    11:00 +14°C° 0 mm 2 mps 703 mmHg 57%
    12:00 +14°C° 0 mm 3 mps 703 mmHg 53%
    13:00 +16°C° 0 mm 3 mps 702 mmHg 49%
    14:00 +17°C° 0 mm 4 mps 701 mmHg 45%
    15:00 +16°C° 0 mm 3 mps 701 mmHg 48%
    16:00 +16°C° 0 mm 3 mps 700 mmHg 52%
    17:00 +15°C° 0 mm 2 mps 700 mmHg 56%
    18:00 +12°C° 0.9 mm 3 mps 700 mmHg 64%
    19:00 +10°C° 0.9 mm 4 mps 701 mmHg 72%
    20:00 +7°C° 0.9 mm 5 mps 701 mmHg 80%
    21:00 +5°C° 1 mm 6 mps 702 mmHg 80%
    22:00 +4°C° 1 mm 6 mps 702 mmHg 80%
    23:00 +3°C° 1 mm 6 mps 703 mmHg 80%

    Day after tomorrow, 2 March, Thursday

    Time Temperature Precipitation Wind Pressure Humidity
    00:00 +3°C° 0 mm 6 mps 703 mmHg 80%
    01:00 +2°C° 0 mm 6 mps 704 mmHg 79%
    02:00 +2°C° 0 mm 6 mps 704 mmHg 79%
    03:00 +2°C° 0 mm 5 mps 704 mmHg 79%
    04:00 +1°C° 0 mm 5 mps 705 mmHg 80%
    05:00 +1°C° 0 mm 5 mps 705 mmHg 80%
    06:00 +1°C° 0 mm 5 mps 706 mmHg 80%
    07:00 +1°C° 0 mm 4 mps 706 mmHg 79%
    08:00 +1°C° 0 mm 4 mps 707 mmHg 79%
    09:00 +3°C° 0 mm 4 mps 707 mmHg 71%
    10:00 +5°C° 0 mm 4 mps 707 mmHg 63%
    11:00 +6°C° 0 mm 4 mps 708 mmHg 55%
    12:00 +7°C° 0 mm 4 mps 708 mmHg 50%
    13:00 +8°C° 0 mm 4 mps 708 mmHg 46%
    14:00 +10°C° 0 mm 3 mps 708 mmHg 41%
    15:00 +10°C° 0 mm 3 mps 708 mmHg 43%
    16:00 +10°C° 0 mm 2 mps 708 mmHg 46%
    17:00 +10°C° 0 mm 2 mps 708 mmHg 48%
    18:00 +8°C° 0 mm 2 mps 708 mmHg 52%
    19:00 +7°C° 0 mm 1 mps 708 mmHg 56%
    20:00 +6°C° 0 mm 1 mps 708 mmHg 61%
    21:00 +5°C° 0 mm 1 mps 709 mmHg 60%
    22:00 +5°C° 0 mm 1 mps 709 mmHg 60%
    23:00 +5°C° 0 mm 1 mps 709 mmHg 59%

    3 March, Friday

    Time Temperature Precipitation Wind Pressure Humidity
    00:00 +5°C° 0 mm 1 mps 709 mmHg 59%
    01:00 +5°C° 0 mm 1 mps 709 mmHg 58%
    02:00 +5°C° 0 mm 1 mps 709 mmHg 58%
    03:00 +4°C° 0 mm 1 mps 709 mmHg 57%
    04:00 +4°C° 0 mm 1 mps 709 mmHg 57%
    05:00 +4°C° 0 mm 1 mps 709 mmHg 57%
    06:00 +4°C° 0 mm 1 mps 709 mmHg 57%
    07:00 +5°C° 0 mm 1 mps 709 mmHg 57%
    08:00 +5°C° 0 mm 1 mps 710 mmHg 57%
    09:00 +8°C° 0 mm 1 mps 710 mmHg 52%
    10:00 +10°C° 0 mm 1 mps 710 mmHg 46%
    11:00 +12°C° 0 mm 1 mps 711 mmHg 41%
    12:00 +13°C° 0 mm 1 mps 711 mmHg 40%
    13:00 +14°C° 0 mm 1 mps 710 mmHg 40%
    14:00 +14°C° 0 mm 1 mps 710 mmHg 40%
    15:00 +14°C° 0 mm 1 mps 710 mmHg 43%
    16:00 +14°C° 0 mm 1 mps 710 mmHg 47%
    17:00 +13°C° 0 mm 1 mps 710 mmHg 50%
    18:00 +11°C° 0 mm 1 mps 710 mmHg 56%
    19:00 +9°C° 0 mm 1 mps 709 mmHg 61%
    20:00 +7°C° 0 mm 1 mps 709 mmHg 67%
    21:00 +6°C° 0 mm 2 mps 710 mmHg 68%
    22:00 +6°C° 0 mm 2 mps 710 mmHg 69%
    23:00 +5°C° 0 mm 2 mps 710 mmHg 70%

    4 March, Saturday

    Time Temperature Precipitation Wind Pressure Humidity
    00:00 +5°C° 0 mm 2 mps 710 mmHg 70%
    01:00 +5°C° 0 mm 2 mps 709 mmHg 70%
    02:00 +4°C° 0 mm 2 mps 709 mmHg 71%
    03:00 +4°C° 0 mm 2 mps 709 mmHg 72%
    04:00 +3°C° 0 mm 2 mps 709 mmHg 72%
    05:00 +3°C° 0 mm 2 mps 709 mmHg 73%
    06:00 +3°C° 0 mm 2 mps 709 mmHg 72%
    07:00 +4°C° 0 mm 2 mps 709 mmHg 72%
    08:00 +4°C° 0 mm 2 mps 710 mmHg 71%
    09:00 +8°C° 0 mm 1 mps 710 mmHg 64%
    10:00 +10°C° 0 mm 1 mps 710 mmHg 56%
    11:00 +12°C° 0 mm 1 mps 710 mmHg 49%
    12:00 +13°C° 0 mm 2 mps 710 mmHg 46%
    13:00 +15°C° 0 mm 2 mps 710 mmHg 44%
    14:00 +16°C° 0 mm 2 mps 709 mmHg 41%
    15:00 +15°C° 0 mm 2 mps 709 mmHg 44%
    16:00 +15°C° 0 mm 2 mps 709 mmHg 47%
    17:00 +15°C° 0 mm 2 mps 709 mmHg 50%
    18:00 +13°C° 0 mm 2 mps 709 mmHg 57%
    19:00 +10°C° 0 mm 2 mps 709 mmHg 63%
    20:00 +8°C° 0 mm 2 mps 709 mmHg 70%
    21:00 +7°C° 0 mm 2 mps 709 mmHg 72%
    22:00 +7°C° 0 mm 2 mps 709 mmHg 74%
    23:00 +6°C° 0 mm 2 mps 709 mmHg 76%

    5 March, Sunday

    Time Temperature Precipitation Wind Pressure Humidity
    00:00 +6°C° 0 mm 2 mps 709 mmHg 77%
    01:00 +5°C° 0 mm 2 mps 709 mmHg 78%
    02:00 +5°C° 0 mm 2 mps 709 mmHg 78%
    03:00 +5°C° 0 mm 2 mps 709 mmHg 78%
    04:00 +4°C° 0 mm 2 mps 709 mmHg 78%
    05:00 +4°C° 0 mm 2 mps 709 mmHg 78%
    06:00 +5°C° 0 mm 1 mps 710 mmHg 76%
    07:00 +6°C° 0 mm 1 mps 710 mmHg 74%
    08:00 +6°C° 0 mm 1 mps 710 mmHg 72%
    09:00 +8°C° 0 mm 1 mps 710 mmHg 64%
    10:00 +11°C° 0 mm 1 mps 711 mmHg 56%
    11:00 +13°C° 0 mm 1 mps 711 mmHg 48%
    12:00 +14°C° 0 mm 1 mps 711 mmHg 45%
    13:00 +15°C° 0 mm 1 mps 710 mmHg 42%
    14:00 +16°C° 0 mm 2 mps 710 mmHg 40%
    15:00 +16°C° 0 mm 2 mps 710 mmHg 43%
    16:00 +15°C° 0 mm 2 mps 710 mmHg 46%
    17:00 +15°C° 0 mm 2 mps 710 mmHg 50%
    18:00 +13°C° 0 mm 2 mps 709 mmHg 56%
    19:00 +10°C° 0 mm 2 mps 709 mmHg 62%
    20:00 +8°C° 0 mm 2 mps 709 mmHg 68%
    21:00 +7°C° 0 mm 2 mps 709 mmHg 69%
    22:00 +7°C° 0 mm 2 mps 709 mmHg 71%
    23:00 +6°C° 0 mm 2 mps 709 mmHg 72%
    Show more